Flag for South Africa Weather past 2 weeks in Rustenburg, South Africa

Now
63 °F

Mild.


Feels Like: 63 °F
Forecast: 49 / 70 °F
Wind: 6 mph from South

Location: Lanseria Civ / Mil

Current Time: Aug 21, 2014 at 2:30:38 AM

Latest Report: Aug 21, 2014 at 2:00 AM


Visibility: N/A

Pressure: 30.15 "Hg

Humidity: 42%

Dew point: 39 °F

Location of RustenburgLocation

Historic Weather in Rustenburg — Graph

°F

Rustenburg temperature yesterday

Maximum temperature yesterday: 79 °F (at 3:00 PM)
Minimum temperature yesterday: 50 °F (at 4:00 AM)
Average temperature yesterday: 64 °F

Past Weeks' High & Low Weather Summary

 TemperatureHumidityPressure
High79 °F (Aug 20, 3:00 PM)100% (Aug 16, 8:00 PM)30.57 "Hg (Aug 16, 8:00 PM)
Low43 °F (Aug 6, 7:00 AM)14% (Aug 6, 4:00 PM)30.15 "Hg (Aug 20, 3:00 PM)
Average60 °F54%30.33 "Hg
* Reported Aug 6 1:00 AM — Aug 21 1:00 AM, Rustenburg, Weather by CustomWeather, © 2014

Note: Actual official high and low records may vary slightly from our data, if they occured in-between our weather recording intervals... More about our weather records

Advertising

Rustenburg weather history for previous 24 hours

 ConditionsComfort  
Time TempWeatherWind HumidityBarometerVisibility
1:00 AM
Aug 21
63 °FMild.8 mph42%30.15 "HgN/A
12:00 AM59 °FRefreshingly cool.6 mph59%30.18 "HgN/A
11:00 PM
Aug 20
57 °FCool.8 mph63%30.18 "HgN/A
10:00 PM63 °FClear.No wind45%30.18 "Hg10 mi
9:00 PM68 °FClear.No wind30%30.18 "Hg10 mi
8:00 PM68 °FPassing clouds.3 mph33%30.18 "HgN/A
7:00 PM70 °FClear.No wind29%30.18 "Hg10 mi
6:00 PM72 °FClear.6 mph27%30.18 "Hg10 mi
5:00 PM77 °FClear.12 mph22%30.15 "Hg10 mi
4:00 PM77 °FSunny.15 mph22%30.15 "Hg10 mi
3:00 PM79 °FPassing clouds.14 mph21%30.15 "HgN/A
2:00 PM77 °FPassing clouds.13 mph22%30.18 "HgN/A
1:00 PM77 °FSunny.16 mph24%30.24 "Hg10 mi
12:00 PM75 °FPassing clouds.15 mph24%30.27 "HgN/A
11:00 AM73 °FPassing clouds.10 mph27%30.27 "HgN/A
10:00 AM66 °FClear.5 mph43%30.30 "Hg6 mi
9:00 AM61 °FClear.No wind55%30.33 "Hg6 mi
8:00 AM54 °FSunny.No wind72%30.30 "Hg10 mi
7:00 AM50 °FSunny.No wind76%30.27 "Hg10 mi
6:00 AM50 °FSunny.8 mph76%30.24 "Hg10 mi
5:00 AM50 °FPassing clouds.5 mph76%30.21 "HgN/A
4:00 AM50 °FCool.No wind82%30.21 "HgN/A
3:00 AM55 °FCool.5 mph63%30.24 "HgN/A
2:00 AM52 °FCool.3 mph77%30.24 "HgN/A
Weather by CustomWeather, © 2014

See weather overviewHow to use our weather pages